RH
74 71 61 57 52 51 53 56 57 54 52 53 54 53 56 64 66 70 67 60 58 57
66 67 62 57 52 49 48 50 56 52 52 53 53 52 59 61 56 57 60 60 59 55
66 60 62 58 57 49 46 50 53 54 52 52 50 51 51 51 49 51 54 52 50 52
63 63 62 61 53 50 50 50 52 51 51 49 48 46 46 47 47 49 51 53 54 52
66 62 59 55 54 51 51 52 50 49 46 46 44 43 45 46 48 50 47 42 38 34
69 72 70 68 64 58 55 52 50 48 50 49 50 48 45 40 35 32 33 34 34 34
76 74 67 67 62 60 60 62 56 52 47 46 39 34 31 30 31 32 34 39 38 36
71 66 65 65 62 58 55 51 48 44 39 37 38 32 40 37 36 36 38 41 35 45
69 64 63 58 53 48 44 42 42 41 42 42 41 59 55 46 40 38 37 40 40 40
68 60 52 44 41 41 40 39 40 44 48 51 56 58 57 50 42 46 46 45 44 40
62 59 48 40 42 43 43 44 45 46 52 55 52 60 59 50 47 47 49 50 49 51
56 49 45 45 46 46 47 48 49 49 48 53 58 59 61 50 50 50 51 48 51 55
43 39 43 44 46 46 48 49 48 51 57 51 61 62 59 51 46 55 51 56 54 58
44 42 40 43 46 46 47 45 44 47 46 46 48 58 59 58 49 52 52 55 55 51
Wind_Speed
13 8 8 10 9 9 8 8 10 8 7 8 7 6 6 5 4 5 4 5 4 3
14 12 9 9 9 8 9 8 10 9 8 8 7 7 6 5 5 5 5 5 3 4
18 16 13 10 11 12 10 10 10 9 9 8 7 7 6 5 6 6 4 4 5 4
16 16 15 11 10 10 12 11 10 10 9 8 8 7 6 6 6 6 5 5 6 5
13 16 16 14 13 12 11 10 9 9 9 8 8 8 8 7 7 7 6 5 5 5
15 14 14 15 13 13 13 11 9 9 9 7 6 7 7 8 7 6 6 5 5 4
14 15 13 16 15 14 15 13 9 8 10 9 8 7 8 8 8 6 5 5 4 4
15 15 14 16 14 14 12 11 13 11 9 9 7 6 6 6 6 5 5 5 4 5
14 14 15 14 15 15 15 12 11 12 10 10 6 9 8 6 6 4 3 4 4 4
14 16 13 13 16 15 13 13 10 10 10 10 7 10 8 8 5 3 3 3 1 1
15 16 15 12 14 14 12 11 11 10 9 8 7 10 9 6 4 4 3 2 2 2
18 16 15 14 13 12 11 11 10 8 8 8 6 9 8 4 3 3 2 3 1 2
15 16 15 15 13 11 12 11 8 8 5 10 7 8 6 1 2 0 1 2 1 4
14 14 14 14 11 11 10 9 9 9 7 6 7 7 6 4 0 0 1 0 1 1
Wind_Direction
166 164 158 166 165 159 163 160 160 157 162 150 151 150 128 126 122 117 119 105 84 92
155 153 155 165 163 160 155 152 157 162 148 147 158 150 142 130 137 125 117 104 103 96
158 152 145 148 171 156 144 147 156 147 148 154 149 144 137 135 132 125 111 116 112 99
157 145 142 155 154 147 141 155 149 146 145 148 145 143 141 129 124 118 118 108 103 92
150 146 141 141 145 141 132 139 139 136 139 138 139 137 134 131 127 124 114 109 107 99
152 131 135 133 129 120 124 122 119 127 122 123 118 118 118 113 108 108 106 104 101 98
135 134 143 133 128 130 125 120 118 118 123 123 126 116 120 122 119 107 100 91 77 76
132 129 127 119 121 116 112 122 120 124 115 118 115 123 113 118 110 126 128 114 97 70
117 119 110 122 117 116 117 112 121 126 128 103 103 102 93 119 106 115 118 101 103 115
120 107 112 117 126 117 120 118 134 114 105 108 130 122 109 82 101 115 99 96 98 35
120 121 130 132 116 121 114 129 114 105 109 124 115 118 111 106 122 124 122 86 50 352
132 131 129 121 109 115 126 95 101 118 133 114 117 121 127 190 147 121 125 97 63 354
125 127 125 126 126 116 107 119 124 114 100 130 119 135 126 57 113 135 98 119 195 200
113 115 119 114 112 119 120 126 132 131 135 136 146 127 106 77 67 261 327 297 297 310